Hourly Data Report for October 01, 2016

All times are specified in Local Standard Time (LST). Add 1 hour to adjust for Daylight Saving Time where and when it is observed.

PANGNIRTUNG
NUNAVUT

66°08'36.300" N
65°42'40.500" W
22.60 m
2403049
71826
WXP

Download Data

Hourly Data (October 2016)
Hourly Data Report for October 1, 2016
Temp Definition
°C
Dew Point Temp Definition
°C
Rel Hum Definition
%
Wind Dir Definition
10's deg

Wind Spd Definition
km/h
Visibility Definition
km
Stn Press Definition
kPa
Hmdx Definition


Wind Chill Definition


Weather Definition


TIME
00:00 0.3 -1.6 87 16 3   100.33     LegendNANA
01:00 0.2 -1.6 88 22 3   100.37     LegendNANA
02:00 0.5 -1.6 86 0 1   100.41     LegendNANA
03:00 0.4 -1.4 88 20 1   100.46     LegendNANA
04:00 0.5 -1.7 85 25 10   100.52     LegendNANA
05:00 0.5 -1.9 84 12 4   100.55     LegendNANA
06:00 -0.1 -2.3 85 9 1   100.60   0 LegendNANA
07:00 -0.1 -2.4 84 0 1   100.64   0 LegendNANA
08:00 0.5 -2.6 80 20 1   100.67     LegendNANA
09:00 1.4 -2.0 78 17 1   100.69     LegendNANA
10:00 1.6 -2.2 76 23 5   100.71     LegendNANA
11:00 1.8 -2.4 74 21 3   100.74     LegendNANA
12:00 1.0 -1.8 81 19 3   100.76     LegendNANA
13:00 1.7 -1.2 81 24 16   100.77     LegendNANA
14:00 3.6 -2.6 64 28 8   100.78     LegendNANA
15:00 3.4 -2.8 64 30 5   100.79     LegendNANA
16:00 3.0 -0.4 79 30 3   100.77     LegendNANA
17:00 1.8 -0.4 85 26 10   100.76     LegendNANA
18:00 2.3 -1.4 77 24 12   100.75     LegendNANA
19:00 2.3 -1.7 75 24 15   100.74     LegendNANA
20:00 2.0 -1.7 76 25 13   100.69     LegendNANA
21:00 1.8 -1.0 82 25 17   100.64     LegendNANA
22:00 1.6 -0.9 84 26 13   100.61     LegendNANA
23:00 1.2 -1.0 85 25 18   100.56     LegendNANA

Notes on Data Quality.

Legend

  • E = Estimated
  • M = Missing
  • NA = Not Available
  • ‡ = Partner data that is not subject to review by the National Climate Archives
Date modified: